Date,TemperatureHighF,TemperatureAvgF,TemperatureLowF,DewpointHighF,DewpointAvgF,DewpointLowF,HumidityHigh,HumidityAvg,HumidityLow,PressureMaxIn,PressureMinIn,WindSpeedMaxMPH,WindSpeedAvgMPH,GustSpeedMaxMPH,PrecipitationSumIn
2013-1-1,74.0,58.3,44.0,60.0,53.4,44.0,99,86,57,30.21,30.00,13,1,20,0.00
2013-1-2,71.0,61.8,57.0,67.0,60.3,56.0,99,95,84,30.07,29.96,8,2,16,0.02
2013-1-3,58.0,54.1,48.0,58.0,53.9,48.0,99,99,93,30.23,30.05,5,1,11,0.11
2013-1-4,56.0,49.4,46.0,53.0,48.3,45.0,99,96,82,30.31,30.20,6,2,10,0.00
2013-1-5,60.0,50.1,39.0,53.0,47.1,39.0,99,90,73,30.34,30.24,5,0,8,0.00
2013-1-6,61.0,53.4,50.0,56.0,52.2,50.0,99,96,83,30.25,30.14,4,0,6,0.37
2013-1-7,59.0,51.8,44.0,54.0,49.9,42.0,99,93,82,30.29,30.17,11,3,19,0.00
2013-1-8,62.0,57.4,55.0,61.0,56.8,54.0,99,98,95,30.28,30.19,6,1,10,0.11
2013-1-9,67.0,60.9,58.0,67.0,60.9,58.0,99,99,99,30.35,30.23,4,0,6,0.01
2013-1-10,74.0,62.2,58.0,71.0,61.7,58.0,99,98,86,30.36,30.27,3,0,7,0.00
2013-1-11,79.0,66.0,57.0,68.0,62.6,57.0,99,90,54,30.27,30.16,9,2,13,0.01
2013-1-12,79.0,67.5,59.0,69.0,64.3,59.0,99,90,63,30.20,30.11,6,1,11,0.00
2013-1-13,77.0,65.7,57.0,68.0,62.7,57.0,99,91,64,30.17,30.08,8,1,10,0.01
2013-1-14,79.0,67.0,59.0,68.0,62.8,59.0,99,87,57,30.19,30.11,9,2,15,0.00
2013-1-15,78.0,68.1,59.0,68.0,63.9,59.0,99,87,57,30.16,30.06,11,2,13,0.00
2013-1-16,80.0,69.2,60.0,68.0,63.4,59.0,99,84,53,30.09,29.97,10,2,19,0.00
2013-1-17,74.0,58.4,42.0,65.0,54.6,37.0,99,88,68,30.12,29.87,11,3,22,0.01
2013-1-18,55.0,49.0,41.0,47.0,42.5,36.0,95,79,66,30.40,30.12,10,4,19,0.00
2013-1-19,58.0,53.3,47.0,55.0,50.4,43.0,99,90,81,30.37,30.19,8,3,16,0.00
2013-1-20,71.0,57.7,46.0,55.0,51.7,45.0,99,83,47,30.19,30.06,6,0,13,0.00
2013-1-21,67.0,53.7,45.0,53.0,47.5,45.0,99,82,49,30.13,30.02,8,0,10,0.00
2013-1-22,61.0,50.4,38.0,45.0,37.0,34.0,94,63,40,30.29,30.10,7,2,13,0.00
2013-1-23,63.0,44.9,30.0,44.0,36.5,29.0,98,76,44,30.40,30.25,6,1,10,0.00
2013-1-24,72.0,56.1,42.0,55.0,48.6,40.0,95,78,53,30.29,30.16,8,1,15,0.00
2013-1-25,67.0,56.9,52.0,58.0,53.9,51.0,98,90,72,30.32,30.16,8,1,12,0.00
2013-1-26,74.0,66.2,52.0,61.0,59.0,52.0,99,79,61,30.23,30.12,10,1,11,0.00
2013-1-27,63.0,57.8,55.0,59.0,55.2,54.0,99,92,77,30.37,30.22,9,2,16,0.00
2013-1-28,68.0,59.2,50.0,62.0,57.1,50.0,99,93,76,30.38,30.27,6,1,9,0.00
2013-1-29,74.0,64.4,53.0,67.0,62.0,53.0,99,92,74,30.27,30.10,10,2,15,0.00
2013-1-30,81.0,71.4,56.0,67.0,63.3,54.0,97,78,54,30.11,29.76,17,5,26,0.09
2013-1-31,58.0,49.9,36.0,54.0,37.6,34.0,97,65,43,30.24,29.87,10,2,15,0.02